Regional Weather Roundup
Issued by NWS

Home | Current Version | Previous Version | Graphics & Text | Print | Product List | Glossary On
Versions: 1 2 3 4 5 6 7 8 9 10 11 12 13 14 15 16 17 18 19 20 21 22 23 24 25 26 27 28 29 30 31 32 33 34 35 36 37 38 39 40 41 42 43 44 45 46 47 48 49 50
922
ASUS43 KLMK 201202
RWRKY
KENTUCKY REGIONAL WEATHER ROUNDUP
NATIONAL WEATHER SERVICE LOUISVILLE KY
700 AM EST FRI JAN 20 2017

NOTE "FAIR" INDICATES FEW OR NO CLOUDS BELOW 12,000 FEET
WITH NO SIGNIFICANT WEATHER AND/OR OBSTRUCTIONS TO VISIBILITY.

KYZ001>023-026-027-061>063-070>075-201300-
WESTERN AND SOUTH CENTRAL KENTUCKY

CITY           SKY/WX    TMP DP  RH WIND       PRES   REMARKS
PADUCAH        CLOUDY    54  49  83 SW9G20    29.69R
HENDERSON      CLOUDY    54  50  87 SW9       29.67R
OWENSBORO      CLOUDY    55  53  93 SW10      29.68S
HOPKINSVILLE   MOCLDY    55  55 100 SW10      29.72R
BOWLING GREEN  CLOUDY    57  53  86 SW12      29.73R
GLASGOW        NOT AVBL
$$

KYZ024-025-028>034-038-045-046-053-201300-
NORTH CENTRAL KENTUCKY

CITY           SKY/WX    TMP DP  RH WIND       PRES   REMARKS
LOUISVILLE/SDF CLOUDY    57  53  86 SW10      29.68R
LOUISVILLE/LOU LGT RAIN  57  53  86 SW8       29.69R
FORT KNOX      CLOUDY    55  55  99 SW9       29.68R
$$

KYZ035>037-039>044-047>052-055>060-089>105-201300-
NORTHEAST KENTUCKY

CITY           SKY/WX    TMP DP  RH WIND       PRES   REMARKS
LEXINGTON      CLOUDY    56  53  90 SW15G21   29.71R
COVINGTON      LGT RAIN  53  52  96 SW10      29.64R FOG
FRANKFORT      CLOUDY    56  52  86 SW10      29.68R
$$

KYZ054-064>069-076>088-106>120-201300-
SOUTHEAST KENTUCKY

CITY           SKY/WX    TMP DP  RH WIND       PRES   REMARKS
JACKSON        CLOUDY    53  50  89 SW5       29.74R
LONDON         MOCLDY    52  50  93 S3        29.75R
SOMERSET       NOT AVBL
MIDDLESBORO    CLOUDY    50  50 100 CALM      29.79R
MONTICELLO     CLOUDY    56  54  93 VRB7      29.77R
$$





USA.gov is the U.S. government's official web portal to all federal, state and local government web resources and services.